Overview Statistics Trail Chart Weather Telemetry Raw packets
 

This is the latest recevied weather packets stored in our database for station/object WC4PEM-6. If no packets are shown the sender has not sent any weather packets the latest 10 day(s).

<< 1 2 3 4 5 6 >>
Time Temp. Humidity Pressure Rain* Wind** Luminosity Snow
1788559270 31.11° C 73% 1012.6 hPa 0 mm - - -
1788558970 31.11° C 73% 1012.9 hPa 0 mm - - -
1788558670 31.11° C 72% 1012.8 hPa 0 mm - - -
1788558370 31.11° C 72% 1012.9 hPa 0 mm - - -
1788558070 31.67° C 72% 1013.1 hPa 0 mm - - -
1788557770 31.67° C 72% 1013.2 hPa 0 mm - - -
1788557470 31.67° C 70% 1013.4 hPa 0 mm - - -
1788557170 31.67° C 71% 1013.4 hPa 0 mm - - -
1788556870 31.67° C 70% 1013.5 hPa 0 mm - - -
1788556570 31.67° C 69% 1013.4 hPa 0 mm - - -
1788556270 31.67° C 68% 1013.4 hPa 0 mm - - -
1788555970 31.67° C 72% 1013.5 hPa 0 mm - - -
1788555670 31.67° C 71% 1013.4 hPa 0 mm - - -
1788555370 31.67° C 71% 1013.5 hPa 0 mm - - -
1788555070 31.67° C 71% 1013.4 hPa 0 mm - - -
1788554770 31.67° C 71% 1013.2 hPa 0 mm - - -
1788554470 31.67° C 73% 1013.5 hPa 0 mm - - -
1788554170 31.67° C 73% 1013.5 hPa 0 mm - - -
1788553870 31.67° C 72% 1013.3 hPa 0 mm - - -
1788553570 31.67° C 73% 1013.2 hPa 0 mm - - -
1788553270 31.11° C 79% 1013.1 hPa 0 mm - - -
1788552970 31.11° C 80% 1013.2 hPa 0 mm - - -
1788552670 31.67° C 79% 1013.2 hPa 0 mm - - -
1788552370 31.67° C 73% 1013.1 hPa 0 mm - - -
1788552265 32.22° C 70% 1013.1 hPa 0 mm - - -

* Rain latest hour (hover to see other rain measurements)
** Current wind speed in m/s (hover to see current wind gust speed)